Вернуться в каталог

SL-12 R/B

AUX MOTOR

АктивенHEO
NORAD 15265·ROCKET BODY·🇷🇺 Russia

Запущен Sep 4, 1984 с Baikonur Cosmodrome

Loading…

Ближайшие Пролёты (ближайшие 24 часа)

TLE

СвежийSource: Space-Track

Эпоха: Sep 14, 2026, 21:29 UTC

1 15265U 84095G   26257.89548070  .00035707  00000-0  29717-2 0  9998
2 15265  51.9282 171.0730 4402123  53.7833 339.4461  6.69320652691603

Отслеживайте SL-12 R/B в реальном времени с AllMySat

Download on the App Store